Skip Page Navigation
NASA JPL Caltech
NASA Logo - Jet Propulsion Laboratory + View the NASA Portal
+ Center for Near-Earth Object Studies
JPL Home Earth Solar System Stars & Galaxies Technology
JPL Solar System Dynamics
BODIES ORBITS EPHEMERIDES TOOLS PHYSICAL DATA DISCOVERY FAQ SITE MAP
JPL Small-Body Database Browser
Search: [ help ]  
393414 (2001 QT110)
Classification: Main-belt Asteroid          SPK-ID: 2393414
Ephemeris | Orbit Diagram | Orbital Elements | Mission Design | Physical Parameters | Discovery Circumstances | Close-Approach Data ]

[ hide orbit diagram ]

For accurate long-term ephemerides, please instead use our Horizons system.This orbit viewer was implemented using two-body methods, and hence should not be used for determining accurate long-term trajectories (over several years or decades) or planetary encounter circumstances.


Orbital Elements at Epoch 2459200.5 (2020-Dec-17.0) TDB
Reference: JPL 14 (heliocentric ecliptic J2000)
 Element Value Uncertainty (1-sigma)   Units 
e .1199806590785451 8.3953e-08  
a 2.801180927609627 2.3913e-08 au
q 2.465093393716773 2.3197e-07 au
i 13.261030959066 1.4498e-05 deg
node 219.3943917033763 2.2262e-05 deg
peri 120.9651938038214 7.6073e-05 deg
M 52.78379297998099 6.6017e-05 deg
tp 2458949.422230387323
(2020-Apr-09.92223039)
0.00031414 TDB
period 1712.41951283881
4.69
2.1928e-05
6.004e-08
d
yr
n .2102288588169614 2.692e-09 deg/d
Q 3.13726846150248 2.6782e-08 au
  Orbit Determination Parameters
   # obs. used (total)      118  
   data-arc span      7045 days (19.29 yr)  
   first obs. used      2001-08-24  
   last obs. used      2020-12-07  
   planetary ephem.      DE441  
   SB-pert. ephem.      SB441-N16  
   condition code      0  
   norm. resid. RMS      .58883  
   source      ORB  
   producer      Otto Matic  
   solution date      2021-Apr-14 11:34:03  

Additional Information
 Earth MOID = 1.48689 au 
 Jupiter MOID = 2.33015 au 
 T_jup = 3.276 
[ show covariance matrix ]

Ephemeris | Orbit Diagram | Orbital Elements | Mission Design | Physical Parameters | Discovery Circumstances | Close-Approach Data ]

Physical Parameter Table
Parameter Symbol Value Units Sigma Reference Notes
absolute magnitude H 17.23   n/a MPCxxxxx  

393414 (2001 QT110)          Discovered 2001-Aug-24 by Kusnirak, P., Pravec, P. at Ondrejov
Reference: Last Updated: 2014-05-15

[ show close-approach data ]
Alternate Designations
 2001 QT110 = 2006 SN332 
Ephemeris | Orbit Diagram | Orbital Elements | Mission Design | Physical Parameters | Discovery Circumstances | Close-Approach Data ]
ABOUT SSD CREDITS/AWARDS PRIVACY/COPYRIGHT GLOSSARY LINKS
FirstGov 2021-Jun-19 06:17 UT
(server date/time)  
NASA Home Page
Site Manager:   Ryan S. Park
Webmaster  Alan B. Chamberlin